TimeEST,TemperatureF,Dew PointF,Humidity,Sea Level PressureIn,VisibilityMPH,Wind Direction,Wind SpeedMPH,Gust SpeedMPH,PrecipitationIn,Events,Conditions,WindDirDegrees,DateUTC
12:56 AM,32.0,28.0,85,30.20,10.0,North,9.2,-,N/A,,Overcast,360,2014-03-05 05:56:00
1:56 AM,32.0,28.0,85,30.18,10.0,North,9.2,-,N/A,,Overcast,350,2014-03-05 06:56:00
2:05 AM,32.0,28.0,85,30.16,10.0,North,11.5,-,N/A,,Overcast,360,2014-03-05 07:05:00
2:56 AM,32.0,28.0,85,30.16,10.0,NNW,12.7,-,N/A,,Overcast,340,2014-03-05 07:56:00
3:56 AM,32.0,28.0,85,30.14,10.0,North,6.9,-,0.00,,Overcast,350,2014-03-05 08:56:00
4:56 AM,32.0,27.0,82,30.14,10.0,North,11.5,-,N/A,,Overcast,350,2014-03-05 09:56:00
5:56 AM,33.1,27.0,78,30.19,10.0,NNW,10.4,-,0.00,Rain,Light Rain,340,2014-03-05 10:56:00
6:25 AM,32.0,28.0,85,30.20,10.0,NNW,5.8,-,0.00,,Overcast,340,2014-03-05 11:25:00
6:56 AM,32.0,28.0,85,30.21,7.0,NNW,9.2,-,0.01,,Overcast,340,2014-03-05 11:56:00
7:37 AM,32.0,30.0,92,30.20,4.0,North,8.1,-,0.01,,Overcast,350,2014-03-05 12:37:00
7:47 AM,33.1,30.0,89,30.20,5.0,North,9.2,-,0.01,,Overcast,350,2014-03-05 12:47:00
7:56 AM,33.1,30.0,89,30.21,5.0,North,9.2,-,0.01,,Overcast,350,2014-03-05 12:56:00
8:28 AM,33.1,30.9,92,30.19,5.0,North,8.1,-,0.00,,Overcast,10,2014-03-05 13:28:00
8:40 AM,33.1,30.0,89,30.18,5.0,North,10.4,-,0.00,Rain,Light Rain,10,2014-03-05 13:40:00
8:56 AM,33.1,30.9,92,30.19,5.0,North,8.1,-,0.00,,Overcast,360,2014-03-05 13:56:00
9:56 AM,35.1,32.0,89,30.20,5.0,North,9.2,-,0.00,Rain,Light Rain,360,2014-03-05 14:56:00
10:56 AM,35.1,33.1,92,30.19,5.0,NNW,8.1,-,0.00,,Overcast,340,2014-03-05 15:56:00
11:56 AM,37.0,34.0,89,30.17,5.0,North,10.4,-,N/A,,Overcast,360,2014-03-05 16:56:00
12:49 PM,37.0,35.1,93,30.15,4.0,North,11.5,-,0.00,Rain,Light Rain,360,2014-03-05 17:49:00
12:56 PM,37.0,34.0,89,30.15,4.0,North,11.5,-,0.00,Rain,Light Rain,10,2014-03-05 17:56:00
1:56 PM,37.9,35.1,89,30.14,4.0,North,10.4,-,0.01,Rain,Light Rain,360,2014-03-05 18:56:00
2:03 PM,37.9,35.1,89,30.13,4.0,North,10.4,-,0.00,Rain,Light Rain,360,2014-03-05 19:03:00
2:56 PM,39.0,36.0,89,30.16,4.0,North,6.9,-,0.01,Rain,Light Rain,360,2014-03-05 19:56:00
3:56 PM,39.0,37.0,93,30.17,4.0,NNE,5.8,-,0.02,Rain,Light Rain,20,2014-03-05 20:56:00
4:05 PM,39.0,37.0,93,30.16,4.0,NNE,6.9,-,0.00,Rain,Light Rain,20,2014-03-05 21:05:00
4:56 PM,39.0,37.0,93,30.15,4.0,NNE,4.6,-,0.03,Rain,Light Rain,30,2014-03-05 21:56:00
5:56 PM,39.9,37.0,89,30.19,6.0,NNW,9.2,-,0.02,Rain,Light Rain,340,2014-03-05 22:56:00
6:56 PM,39.9,36.0,86,30.18,10.0,North,9.2,-,0.00,,Overcast,10,2014-03-05 23:56:00
7:56 PM,39.0,35.1,86,30.19,10.0,North,8.1,-,0.00,,Scattered Clouds,10,2014-03-06 00:56:00
8:56 PM,39.0,34.0,82,30.21,10.0,North,5.8,-,N/A,,Overcast,360,2014-03-06 01:56:00
9:56 PM,39.0,33.1,79,30.24,10.0,North,8.1,-,N/A,,Overcast,360,2014-03-06 02:56:00
10:52 PM,37.4,32.0,81,30.24,10.0,NNE,4.6,-,N/A,,Overcast,20,2014-03-06 03:52:00
10:56 PM,37.0,32.0,82,30.25,10.0,NNE,4.6,-,N/A,,Overcast,20,2014-03-06 03:56:00
11:49 PM,36.0,30.9,82,30.24,10.0,NNE,9.2,-,N/A,,Scattered Clouds,20,2014-03-06 04:49:00
11:56 PM,36.0,30.9,82,30.25,10.0,North,9.2,-,N/A,,Partly Cloudy,10,2014-03-06 04:56:00